Beckley, WV

8:11 PM EDT on October 20, 2017 (GMT -0400)
Raleigh County Memorial

Weather History for KBKW - January, 2013

Change the Weather History Date:

Thursday, January 24, 2013

  Actual Average Record
Temperature  
Mean Temperature 19 °F 31 °F  
Max Temperature 28 °F 40 °F 70 °F (1950)
Min Temperature 9 °F 23 °F -18 °F (1963)
Degree Days  
Heating Degree Days 46 34  
Month to date heating degree days 703 816  
Since 1 July heating degree days 2725 2909  
Cooling Degree Days 0 0  
Month to date cooling degree days 0 0  
Year to date cooling degree days 0 0  
Moisture  
Dew Point 7 °F    
Average Humidity 69    
Maximum Humidity 84    
Minimum Humidity 53    
Precipitation  
Precipitation T in 0.09 in 1.00 in (1910)
Month to date precipitation 2.48 2.18  
Year to date precipitation 2.48 2.18  
Snow  
Snow T in - - ()
Month to date snowfall 0.8  
Since 1 September snowfall 39.0  
Snow Depth 0.00 in    
Sea Level Pressure  
Sea Level Pressure 30.30 in    
Wind  
Wind Speed 10 mph (NNW)    
Max Wind Speed 25 mph    
Max Gust Speed 31 mph    
Visibility 6 miles    
Events Snow    
T = Trace of Precipitation, MM = Missing Value Source: NWS Daily Summary

Daily Weather History Graph

Daily Weather History Graph

Search for Another Location

Airport or City:

Trip Planner

Search our weather history database for the weather conditions in past years. The results will help you decide how hot, cold, wet, or windy it might be!

Date:

Astronomy

Jan. 24, 2013 Rise Set
Actual Time 7:34 AM EST 5:39 PM EST
Civil Twilight 7:06 AM EST 6:07 PM EST
Nautical Twilight 6:34 AM EST 6:39 PM EST
Astronomical Twilight 6:03 AM EST 7:10 PM EST
Moon 3:40 PM EST (1/24) 5:30 AM EST (1/24)
Length of Visible Light 11h 01m
Length of Day
10h 05m
Waxing Gibbous, 94% of the Moon is Illuminated
Jan 24
Waxing Gibbous
Jan 26
Full
Feb 3
Last Quarter
Feb 10
New
Feb 17
First Quarter

Hourly Weather History & Observations

Time (EST) Temp. Windchill Dew Point Humidity Pressure Visibility Wind Dir Wind Speed Gust Speed Precip Events Conditions
12:51 AM 27.0 °F 14.7 °F 14.0 °F 58% 30.05 in 10.0 mi WNW 16.1 mph 24.2 mph N/A   Overcast
1:51 AM 27.0 °F 16.7 °F 14.0 °F 58% 30.06 in 10.0 mi WNW 11.5 mph 26.5 mph N/A   Overcast
2:51 AM 24.1 °F 11.5 °F 12.0 °F 60% 30.10 in 10.0 mi NW 15.0 mph 21.9 mph N/A   Overcast
3:51 AM 23.0 °F 10.6 °F 10.9 °F 60% 30.13 in 10.0 mi NW 13.8 mph 24.2 mph N/A   Overcast
4:51 AM 21.9 °F 9.2 °F 10.9 °F 63% 30.14 in 10.0 mi WNW 13.8 mph 20.7 mph 0.00 in Snow Light Snow
5:48 AM 19.4 °F 3.6 °F 10.4 °F 68% 30.06 in 2.0 mi NW 19.6 mph 26.5 mph 0.00 in Snow Light Snow
5:51 AM 18.0 °F 1.7 °F 10.9 °F 74% 30.21 in 2.0 mi NW 19.6 mph 26.5 mph 0.00 in Snow Light Snow
6:23 AM 17.6 °F 3.2 °F 10.4 °F 73% 30.09 in 4.0 mi NW 15.0 mph 28.8 mph 0.00 in Snow Light Snow
6:51 AM 15.8 °F 0.3 °F 8.6 °F 73% 30.11 in 2.0 mi NW 16.1 mph 27.6 mph N/A Snow Light Snow
7:02 AM 15.8 °F -0.2 °F 8.6 °F 73% 30.12 in 1.5 mi NW 17.3 mph 25.3 mph 0.00 in Snow Light Snow
7:41 AM 14.0 °F -2.5 °F 6.8 °F 73% 30.15 in 3.0 mi NW 17.3 mph 31.1 mph 0.00 in Snow Light Snow
7:51 AM 14.0 °F -2.5 °F 5.0 °F 67% 30.31 in 10.0 mi NW 17.3 mph 27.6 mph 0.00 in   Overcast
8:09 AM 14.0 °F -1.4 °F 6.8 °F 73% 30.18 in 1.8 mi NW 15.0 mph - 0.00 in Snow Light Snow
8:21 AM 12.2 °F -2.5 °F 6.8 °F 79% 30.19 in 0.8 mi WNW 12.7 mph 24.2 mph 0.00 in Snow Light Snow
8:28 AM 12.2 °F -1.8 °F 6.8 °F 79% 30.19 in 0.8 mi NW 11.5 mph 20.7 mph 0.00 in Snow Light Snow
8:40 AM 14.0 °F -0.2 °F 6.8 °F 73% 30.21 in 1.2 mi NW 12.7 mph - 0.00 in Snow Light Snow
8:51 AM 12.9 °F -0.9 °F 8.1 °F 81% 30.37 in 0.8 mi NW 11.5 mph - 0.00 in Snow Light Snow
9:01 AM 14.0 °F 2.0 °F 6.8 °F 73% 30.22 in 1.8 mi NW 9.2 mph - 0.00 in Snow Light Snow
9:15 AM 14.0 °F -0.8 °F 6.8 °F 73% 30.23 in 3.0 mi NNW 13.8 mph - 0.00 in Snow Light Snow
9:28 AM 14.0 °F -0.8 °F 6.8 °F 73% 30.24 in 2.0 mi NW 13.8 mph 21.9 mph 0.00 in Snow Light Snow
9:51 AM 15.1 °F 2.5 °F 7.0 °F 70% 30.41 in 3.0 mi NW 10.4 mph - 0.00 in Snow Light Snow
10:43 AM 15.8 °F 2.7 °F 6.8 °F 68% 30.28 in 1.5 mi NNW 11.5 mph 23.0 mph 0.00 in Snow Light Snow
10:51 AM 15.1 °F 0.5 °F 8.1 °F 74% 30.43 in 0.8 mi NNW 13.8 mph 19.6 mph 0.00 in Snow Light Snow
10:55 AM 15.8 °F 0.9 °F 8.6 °F 73% 30.29 in 2.0 mi NNW 15.0 mph 20.7 mph 0.00 in Snow Light Snow
11:03 AM 15.8 °F -1.1 °F 6.8 °F 68% 30.30 in 10.0 mi North 19.6 mph 26.5 mph 0.00 in   Mostly Cloudy
11:18 AM 15.8 °F 1.4 °F 3.2 °F 58% 30.30 in 10.0 mi NNW 13.8 mph 26.5 mph 0.00 in   Mostly Cloudy
11:39 AM 15.8 °F 1.4 °F 6.8 °F 68% 30.31 in 2.5 mi NNW 13.8 mph 23.0 mph 0.00 in Snow Light Snow
11:44 AM 15.8 °F 1.4 °F 6.8 °F 68% 30.31 in 3.0 mi NNW 13.8 mph 23.0 mph 0.00 in Snow Light Snow
11:51 AM 16.0 °F 3.6 °F 7.0 °F 68% 30.45 in 5.0 mi NNW 10.4 mph 18.4 mph 0.00 in Snow Light Snow
12:21 PM 15.8 °F 1.4 °F 3.2 °F 58% 30.31 in 10.0 mi NNW 13.8 mph 25.3 mph 0.00 in   Overcast
12:51 PM 16.0 °F 3.6 °F 6.1 °F 65% 30.45 in 9.0 mi NNW 10.4 mph - 0.00 in Snow Light Snow
1:34 PM 17.6 °F 3.2 °F 5.0 °F 58% 30.31 in 10.0 mi North 15.0 mph - 0.00 in   Mostly Cloudy
1:41 PM 17.6 °F 3.7 °F 6.8 °F 63% 30.31 in 10.0 mi NNW 13.8 mph - 0.00 in   Mostly Cloudy
1:51 PM 16.0 °F 0.1 °F 1.9 °F 54% 30.45 in 8.0 mi North 17.3 mph 23.0 mph 0.00 in Snow Light Snow
2:24 PM 17.6 °F 2.7 °F 5.0 °F 58% 30.31 in 10.0 mi North 16.1 mph 21.9 mph 0.00 in   Mostly Cloudy
2:51 PM 17.1 °F 3.0 °F 3.0 °F 54% 30.46 in 10.0 mi North 13.8 mph 19.6 mph 0.00 in   Mostly Cloudy
3:51 PM 16.0 °F 5.3 °F 3.0 °F 57% 30.48 in 10.0 mi NNE 8.1 mph - N/A   Mostly Cloudy
4:51 PM 16.0 °F 5.3 °F 1.0 °F 52% 30.50 in 10.0 mi North 8.1 mph - N/A   Overcast
5:51 PM 15.1 °F - 1.0 °F 54% 30.52 in 10.0 mi Calm Calm - N/A   Scattered Clouds
6:51 PM 14.0 °F 8.2 °F 1.0 °F 56% 30.56 in 10.0 mi North 3.5 mph - N/A   Clear
7:51 PM 12.0 °F - 1.9 °F 64% 30.57 in 10.0 mi Calm Calm - N/A   Clear
8:51 PM 10.0 °F - 1.0 °F 67% 30.57 in 10.0 mi Calm Calm - N/A   Clear
9:51 PM 10.9 °F 2.9 °F 1.9 °F 67% 30.55 in 10.0 mi ENE 4.6 mph - N/A   Clear
10:51 PM 10.9 °F 2.9 °F 1.9 °F 67% 30.54 in 10.0 mi ESE 4.6 mph - N/A   Clear
11:51 PM 12.0 °F 5.9 °F 1.9 °F 64% 30.51 in 10.0 mi SE 3.5 mph - N/A   Clear